| time (UTC) | temp F | wind direction | speed knots | gust knots | rain 1hr in | rain 24hr in | rain mn in | humidity % | barometer mb |
| 20260508224500 | 85 | 338 | 7.0 | 8.7 | 0.00 | 0.00 | 0.00 | 15 | 1012.9 |
| 20260508223857 | 85 | 341 | 0.9 | 1.7 | 0.00 | 0.00 | 0.00 | 16 | 1012.9 |
| 20260508223307 | 84 | 18 | 0.0 | 2.6 | 0.00 | 0.00 | 0.00 | 16 | 1012.6 |
| 20260508222633 | 84 | 0 | 0.0 | 1.7 | 0.00 | 0.00 | 0.00 | 17 | 1012.6 |
| 20260508222054 | 85 | 335 | 0.0 | 0.0 | 0.00 | 0.00 | 0.00 | 16 | 1012.9 |
| 20260508221412 | 84 | 327 | 0.0 | 0.0 | 0.00 | 0.00 | 0.00 | 16 | 1012.9 |
| 20260508221003 | 85 | 352 | 0.0 | 0.0 | 0.00 | 0.00 | 0.00 | 15 | 1012.9 |
| 20260508220151 | 84 | 357 | 0.0 | 0.0 | 0.00 | 0.00 | 0.00 | 16 | 1012.9 |
| 20260508215601 | 85 | 22 | 0.0 | 0.0 | 0.00 | 0.00 | 0.00 | 16 | 1012.9 |
| 20260508214953 | 85 | 335 | 0.0 | 6.1 | 0.00 | 0.00 | 0.00 | 15 | 1013.3 |
| 20260508214353 | 85 | 55 | 1.7 | 6.1 | 0.00 | 0.00 | 0.00 | 15 | 1013.3 |
| 20260508213756 | 85 | 342 | 0.0 | 1.7 | 0.00 | 0.00 | 0.00 | 15 | 1013.3 |
| 20260508213419 | 84 | 350 | 0.9 | 1.7 | 0.00 | 0.00 | 0.00 | 15 | 1013.3 |
| 20260508213030 | 84 | 353 | 0.0 | 3.5 | 0.00 | 0.00 | 0.00 | 15 | 1013.3 |
| 20260508211951 | 84 | 352 | 0.0 | 0.0 | 0.00 | 0.00 | 0.00 | 16 | 1013.6 |
| 20260508211446 | 83 | 355 | 0.0 | 2.6 | 0.00 | 0.00 | 0.00 | 16 | 1013.6 |
| 20260508211353 | 83 | 324 | 0.0 | 0.9 | 0.00 | 0.00 | 0.00 | 16 | 1013.3 |
| 20260508210858 | 84 | 349 | 0.9 | 2.6 | 0.00 | 0.00 | 0.00 | 15 | 1013.6 |
| 20260508205500 | 85 | 8 | 0.0 | 1.7 | 0.00 | 0.00 | 0.00 | 16 | 1013.3 |
| 20260508205333 | 84 | 98 | 0.0 | 7.0 | 0.00 | 0.00 | 0.00 | 17 | 1013.6 |
| 20260508204331 | 85 | 334 | 0.0 | 7.0 | 0.00 | 0.00 | 0.00 | 16 | 1013.6 |
| 20260508203737 | 84 | 3 | 0.0 | 1.7 | 0.00 | 0.00 | 0.00 | 17 | 1013.3 |
| 20260508203157 | 83 | 357 | 0.0 | 0.9 | 0.00 | 0.00 | 0.00 | 17 | 1013.6 |
| 20260508202653 | 85 | 327 | 0.0 | 0.9 | 0.00 | 0.00 | 0.00 | 16 | 1013.9 |
| 20260508202342 | 84 | 114 | 0.0 | 0.9 | 0.00 | 0.00 | 0.00 | 15 | 1013.6 |
| 20260508201605 | 84 | 112 | 0.0 | 0.0 | 0.00 | 0.00 | 0.00 | 15 | 1013.9 |
| 20260508200958 | 83 | 356 | 0.0 | 7.0 | 0.00 | 0.00 | 0.00 | 17 | 1013.6 |
| 20260508200351 | 84 | 1 | 5.2 | 7.0 | 0.00 | 0.00 | 0.00 | 16 | 1013.9 |
| 20260508195752 | 84 | 328 | 1.7 | 5.2 | 0.00 | 0.00 | 0.00 | 17 | 1013.6 |
| 20260508195149 | 84 | 334 | 1.7 | 6.1 | 0.00 | 0.00 | 0.00 | 17 | 1013.9 |
| 20260508194546 | 83 | 344 | 2.6 | 9.6 | 0.00 | 0.00 | 0.00 | 16 | 1013.6 |
| 20260508194016 | 83 | 267 | 0.0 | 3.5 | 0.00 | 0.00 | 0.00 | 18 | 1013.6 |
| 20260508193840 | 83 | 348 | 0.0 | 3.5 | 0.00 | 0.00 | 0.00 | 16 | 1013.9 |
| 20260508192749 | 83 | 327 | 0.0 | 3.5 | 0.00 | 0.00 | 0.00 | 16 | 1013.6 |
| 20260508192157 | 82 | 6 | 0.9 | 7.0 | 0.00 | 0.00 | 0.00 | 16 | 1013.9 |
| 20260508191552 | 83 | 342 | 3.5 | 7.0 | 0.00 | 0.00 | 0.00 | 16 | 1013.9 |
| 20260508190955 | 83 | 328 | 4.3 | 9.6 | 0.00 | 0.00 | 0.00 | 16 | 1013.9 |
| 20260508190348 | 83 | 340 | 0.0 | 3.5 | 0.00 | 0.00 | 0.00 | 17 | 1013.6 |
| 20260508185807 | 83 | 303 | 0.0 | 3.5 | 0.00 | 0.00 | 0.00 | 17 | 1013.9 |
| 20260508185245 | 83 | 15 | 0.0 | 7.8 | 0.00 | 0.00 | 0.00 | 18 | 1013.9 |
| 20260508184654 | 82 | 9 | 3.5 | 7.8 | 0.00 | 0.00 | 0.00 | 17 | 1014.3 |
| 20260508184319 | 82 | 315 | 0.0 | 0.9 | 0.00 | 0.00 | 0.00 | 16 | 1013.9 |
| 20260508183450 | 81 | 169 | 0.0 | 5.2 | 0.00 | 0.00 | 0.00 | 18 | 1013.9 |
| 20260508183322 | 81 | 6 | 1.7 | 5.2 | 0.00 | 0.00 | 0.00 | 18 | 1014.6 |
| 20260508182252 | 81 | 4 | 0.0 | 3.5 | 0.00 | 0.00 | 0.00 | 19 | 1014.3 |
| 20260508181911 | 82 | 316 | 0.0 | 7.8 | 0.00 | 0.00 | 0.00 | 18 | 1014.6 |
| 20260508181052 | 80 | 332 | 0.0 | 0.0 | 0.00 | 0.00 | 0.00 | 20 | 1014.3 |
| 20260508180505 | 81 | 254 | 0.0 | 0.0 | 0.00 | 0.00 | 0.00 | 20 | 1014.3 |
| 20260508175937 | 80 | 16 | 0.0 | 0.9 | 0.00 | 0.00 | 0.00 | 18 | 1014.6 |
| 20260508175631 | 81 | 339 | 0.0 | 0.0 | 0.00 | 0.00 | 0.00 | 20 | 1014.6 |
| 20260508175014 | 80 | 303 | 0.0 | 0.0 | 0.00 | 0.00 | 0.00 | 20 | 1015.0 |
| 20260508174334 | 79 | 16 | 0.0 | 0.9 | 0.00 | 0.00 | 0.00 | 21 | 1014.6 |
| 20260508173457 | 79 | 17 | 0.0 | 0.9 | 0.00 | 0.00 | 0.00 | 21 | 1015.0 |
| 20260508172850 | 80 | 341 | 0.0 | 0.0 | 0.00 | 0.00 | 0.00 | 21 | 1014.6 |
| 20260508172252 | 78 | 5 | 0.0 | 0.0 | 0.00 | 0.00 | 0.00 | 21 | 1015.0 |
| 20260508171645 | 79 | 3 | 0.0 | 0.9 | 0.00 | 0.00 | 0.00 | 21 | 1014.6 |
| 20260508171051 | 78 | 9 | 0.0 | 2.6 | 0.00 | 0.00 | 0.00 | 22 | 1015.0 |
| 20260508170441 | 78 | 0 | 0.9 | 2.6 | 0.00 | 0.00 | 0.00 | 22 | 1015.0 |
| 20260508165857 | 79 | 331 | 0.0 | 0.0 | 0.00 | 0.00 | 0.00 | 23 | 1015.3 |
| 20260508165254 | 77 | 351 | 0.0 | 0.9 | 0.00 | 0.00 | 0.00 | 25 | 1015.0 |
| 20260508164714 | 79 | 215 | 0.0 | 0.9 | 0.00 | 0.00 | 0.00 | 24 | 1015.0 |
| 20260508164416 | 78 | 332 | 0.0 | 2.6 | 0.00 | 0.00 | 0.00 | 24 | 1015.0 |
| 20260508163552 | 77 | 312 | 1.7 | 2.6 | 0.00 | 0.00 | 0.00 | 27 | 1015.3 |
| 20260508162949 | 76 | 203 | 0.0 | 0.9 | 0.00 | 0.00 | 0.00 | 28 | 1015.0 |
| 20260508162358 | 75 | 334 | 0.0 | 0.9 | 0.00 | 0.00 | 0.00 | 29 | 1015.3 |
| 20260508161750 | 74 | 325 | 0.0 | 0.9 | 0.00 | 0.00 | 0.00 | 29 | 1015.0 |
| 20260508161137 | 74 | 311 | 0.0 | 0.0 | 0.00 | 0.00 | 0.00 | 30 | 1015.3 |
| 20260508160555 | 74 | 339 | 0.0 | 1.7 | 0.00 | 0.00 | 0.00 | 29 | 1015.0 |
| 20260508160207 | 74 | 225 | 0.9 | 1.7 | 0.00 | 0.00 | 0.00 | 30 | 1015.0 |
| 20260508155430 | 74 | 236 | 0.0 | 2.6 | 0.00 | 0.00 | 0.00 | 29 | 1015.3 |
| 20260508154851 | 73 | 241 | 0.0 | 2.6 | 0.00 | 0.00 | 0.00 | 28 | 1015.0 |
| 20260508154254 | 73 | 223 | 0.0 | 0.9 | 0.00 | 0.00 | 0.00 | 30 | 1015.3 |
| 20260508154157 | 72 | 254 | 0.0 | 0.0 | 0.00 | 0.00 | 0.00 | 31 | 1015.3 |
| 20260508153053 | 72 | 177 | 0.0 | 0.0 | 0.00 | 0.00 | 0.00 | 33 | 1015.3 |
| 20260508152451 | 71 | 187 | 0.0 | 0.0 | 0.00 | 0.00 | 0.00 | 34 | 1015.0 |
| 20260508152123 | 70 | 255 | 0.0 | 0.0 | 0.00 | 0.00 | 0.00 | 36 | 1015.6 |
| 20260508151253 | 69 | 259 | 0.0 | 0.0 | 0.00 | 0.00 | 0.00 | 40 | 1015.3 |
| 20260508150654 | 70 | 215 | 0.0 | 0.0 | 0.00 | 0.00 | 0.00 | 41 | 1015.6 |
| 20260508150112 | 68 | 233 | 0.0 | 0.0 | 0.00 | 0.00 | 0.00 | 42 | 1015.3 |
| 20260508145513 | 67 | 221 | 0.0 | 0.0 | 0.00 | 0.00 | 0.00 | 44 | 1015.3 |
| 20260508145010 | 67 | 197 | 0.0 | 0.0 | 0.00 | 0.00 | 0.00 | 44 | 1015.0 |
| 20260508144511 | 66 | 230 | 0.0 | 0.0 | 0.00 | 0.00 | 0.00 | 48 | 1015.3 |
| 20260508143848 | 65 | 197 | 0.0 | 0.0 | 0.00 | 0.00 | 0.00 | 51 | 1015.3 |
| 20260508143513 | 65 | 218 | 0.0 | 0.0 | 0.00 | 0.00 | 0.00 | 53 | 1015.3 |
| 20260508142658 | 64 | 152 | 0.0 | 0.0 | 0.00 | 0.00 | 0.00 | 54 | 1015.0 |
| 20260508142054 | 63 | 195 | 0.0 | 0.0 | 0.00 | 0.00 | 0.00 | 57 | 1015.3 |
| 20260508141453 | 62 | 213 | 0.0 | 0.0 | 0.00 | 0.00 | 0.00 | 59 | 1015.3 |
| 20260508140851 | 61 | 229 | 0.0 | 0.0 | 0.00 | 0.00 | 0.00 | 61 | 1015.3 |
| 20260508140304 | 61 | 209 | 0.0 | 0.0 | 0.00 | 0.00 | 0.00 | 62 | 1015.6 |
| 20260508135655 | 60 | 235 | 0.0 | 0.0 | 0.00 | 0.00 | 0.00 | 63 | 1015.6 |
| 20260508135109 | 59 | 213 | 0.0 | 0.0 | 0.00 | 0.00 | 0.00 | 65 | 1015.3 |
| 20260508134446 | 59 | 207 | 0.0 | 0.0 | 0.00 | 0.00 | 0.00 | 67 | 1015.3 |
| 20260508134114 | 58 | 203 | 0.0 | 0.0 | 0.00 | 0.00 | 0.00 | 68 | 1015.3 |
| 20260508133253 | 56 | 197 | 0.0 | 0.0 | 0.00 | 0.00 | 0.00 | 70 | 1015.3 |
| 20260508132648 | 56 | 200 | 0.0 | 0.0 | 0.00 | 0.00 | 0.00 | 71 | 1015.0 |
| 20260508132056 | 55 | 200 | 0.0 | 0.0 | 0.00 | 0.00 | 0.00 | 72 | 1015.3 |
| 20260508131453 | 54 | 200 | 0.0 | 0.0 | 0.00 | 0.00 | 0.00 | 74 | 1015.3 |
| 20260508130851 | 53 | 203 | 0.0 | 0.0 | 0.00 | 0.00 | 0.00 | 72 | 1015.0 |
| 20260508130510 | 53 | 204 | 0.0 | 0.0 | 0.00 | 0.00 | 0.00 | 72 | 1015.0 |
| 20260508125700 | 51 | 204 | 0.0 | 0.0 | 0.00 | 0.00 | 0.00 | 74 | 1015.0 |
| 20260508125055 | 50 | 204 | 0.0 | 0.0 | 0.00 | 0.00 | 0.00 | 75 | 1015.3 |
| 20260508124457 | 48 | 204 | 0.0 | 0.0 | 0.00 | 0.00 | 0.00 | 78 | 1015.0 |
| 20260508123856 | 47 | 204 | 0.0 | 0.0 | 0.00 | 0.00 | 0.00 | 79 | 1015.3 |
| 20260508123255 | 47 | 202 | 0.0 | 0.0 | 0.00 | 0.00 | 0.00 | 80 | 1015.0 |
| 20260508122906 | 47 | 202 | 0.0 | 0.0 | 0.00 | 0.00 | 0.00 | 81 | 1015.0 |
| 20260508122023 | 47 | 203 | 0.0 | 0.0 | 0.00 | 0.00 | 0.00 | 80 | 1014.6 |
| 20260508121435 | 48 | 203 | 0.0 | 0.0 | 0.00 | 0.00 | 0.00 | 81 | 1015.0 |
| 20260508120849 | 49 | 204 | 0.0 | 0.0 | 0.00 | 0.00 | 0.00 | 81 | 1014.6 |
| 20260508120514 | 49 | 204 | 0.0 | 0.0 | 0.00 | 0.00 | 0.00 | 81 | 1015.0 |
| 20260508115652 | 49 | 204 | 0.0 | 0.0 | 0.00 | 0.00 | 0.00 | 80 | 1015.0 |
| 20260508115053 | 49 | 204 | 0.0 | 0.0 | 0.00 | 0.00 | 0.00 | 80 | 1014.6 |
| 20260508114718 | 49 | 204 | 0.0 | 0.0 | 0.00 | 0.00 | 0.00 | 80 | 1014.6 |
| 20260508113853 | 49 | 204 | 0.0 | 0.0 | 0.00 | 0.00 | 0.00 | 79 | 1014.6 |
| 20260508113515 | 50 | 204 | 0.0 | 0.0 | 0.00 | 0.00 | 0.00 | 79 | 1014.6 |
| 20260508112704 | 49 | 204 | 0.0 | 0.0 | 0.00 | 0.00 | 0.00 | 79 | 1014.6 |
| 20260508112113 | 50 | 204 | 0.0 | 0.0 | 0.00 | 0.00 | 0.00 | 77 | 1014.6 |
| 20260508111452 | 51 | 204 | 0.0 | 0.0 | 0.00 | 0.00 | 0.00 | 77 | 1015.0 |
| 20260508110853 | 51 | 204 | 0.0 | 0.0 | 0.00 | 0.00 | 0.00 | 76 | 1014.6 |
| 20260508110510 | 52 | 204 | 0.0 | 0.0 | 0.00 | 0.00 | 0.00 | 76 | 1014.6 |
| 20260508105710 | 52 | 204 | 0.0 | 0.0 | 0.00 | 0.00 | 0.00 | 75 | 1015.0 |
| 20260508105142 | 53 | 204 | 0.0 | 0.0 | 0.00 | 0.00 | 0.00 | 74 | 1014.6 |
| 20260508104530 | 53 | 203 | 0.0 | 5.2 | 0.00 | 0.00 | 0.00 | 74 | 1015.0 |
| 20260508104007 | 53 | 219 | 0.0 | 5.2 | 0.00 | 0.00 | 0.00 | 73 | 1014.6 |
| 20260508103352 | 52 | 208 | 0.0 | 0.0 | 0.00 | 0.00 | 0.00 | 73 | 1015.0 |
| 20260508102810 | 51 | 208 | 0.0 | 0.0 | 0.00 | 0.00 | 0.00 | 74 | 1014.6 |
| 20260508102151 | 51 | 207 | 0.0 | 0.0 | 0.00 | 0.00 | 0.00 | 74 | 1014.6 |
| 20260508101553 | 51 | 207 | 0.0 | 0.0 | 0.00 | 0.00 | 0.00 | 72 | 1015.0 |
| 20260508100953 | 52 | 207 | 0.0 | 0.0 | 0.00 | 0.00 | 0.00 | 72 | 1015.0 |
| 20260508100356 | 52 | 208 | 0.0 | 0.0 | 0.00 | 0.00 | 0.00 | 71 | 1015.0 |
| 20260508095754 | 52 | 209 | 0.0 | 0.0 | 0.00 | 0.00 | 0.00 | 71 | 1015.0 |
| 20260508095141 | 52 | 209 | 0.0 | 0.0 | 0.00 | 0.00 | 0.00 | 70 | 1015.0 |
| 20260508094613 | 52 | 211 | 0.0 | 0.9 | 0.00 | 0.00 | 0.00 | 70 | 1015.0 |
| 20260508093951 | 52 | 214 | 0.0 | 0.0 | 0.00 | 0.00 | 0.00 | 69 | 1015.0 |
| 20260508093351 | 52 | 205 | 0.0 | 0.0 | 0.00 | 0.00 | 0.00 | 69 | 1015.0 |
| 20260508092752 | 52 | 211 | 0.0 | 0.0 | 0.00 | 0.00 | 0.00 | 68 | 1015.0 |
| 20260508092155 | 52 | 211 | 0.0 | 0.0 | 0.00 | 0.00 | 0.00 | 68 | 1015.3 |
| 20260508091013 | 52 | 193 | 0.0 | 0.9 | 0.00 | 0.00 | 0.00 | 67 | 1015.0 |
| 20260508090354 | 53 | 188 | 0.0 | 0.0 | 0.00 | 0.00 | 0.00 | 66 | 1015.3 |
| 20260508085754 | 53 | 141 | 0.0 | 5.2 | 0.00 | 0.00 | 0.00 | 65 | 1015.3 |
| 20260508085145 | 54 | 214 | 0.0 | 0.9 | 0.00 | 0.00 | 0.00 | 64 | 1015.3 |
| 20260508084552 | 54 | 217 | 0.0 | 0.9 | 0.00 | 0.00 | 0.00 | 64 | 1015.6 |
| 20260508083951 | 54 | 214 | 0.0 | 6.1 | 0.00 | 0.00 | 0.00 | 63 | 1015.6 |
| 20260508083402 | 53 | 200 | 0.0 | 0.0 | 0.00 | 0.00 | 0.00 | 63 | 1015.6 |
| 20260508082750 | 53 | 224 | 0.0 | 0.9 | 0.00 | 0.00 | 0.00 | 63 | 1015.3 |
| 20260508082154 | 53 | 211 | 0.0 | 0.9 | 0.00 | 0.00 | 0.00 | 62 | 1015.3 |
| 20260508081645 | 54 | 215 | 0.0 | 0.0 | 0.00 | 0.00 | 0.00 | 62 | 1015.6 |
| 20260508081048 | 54 | 217 | 0.0 | 5.2 | 0.00 | 0.00 | 0.00 | 61 | 1015.6 |
| 20260508080453 | 54 | 194 | 0.0 | 5.2 | 0.00 | 0.00 | 0.00 | 60 | 1015.6 |
| 20260508075854 | 54 | 191 | 3.5 | 5.2 | 0.00 | 0.00 | 0.00 | 60 | 1015.6 |
| 20260508075325 | 54 | 197 | 0.0 | 3.5 | 0.00 | 0.00 | 0.00 | 60 | 1015.6 |
| 20260508075018 | 54 | 190 | 0.0 | 3.5 | 0.00 | 0.00 | 0.00 | 60 | 1015.6 |
| 20260508074151 | 54 | 207 | 0.0 | 6.1 | 0.00 | 0.00 | 0.00 | 59 | 1015.6 |
| 20260508073556 | 54 | 220 | 4.3 | 6.1 | 0.00 | 0.00 | 0.00 | 59 | 1015.6 |
| 20260508073211 | 55 | 204 | 3.5 | 3.5 | 0.00 | 0.00 | 0.00 | 58 | 1015.6 |
| 20260508072352 | 56 | 203 | 0.0 | 0.9 | 0.00 | 0.00 | 0.00 | 57 | 1016.0 |
| 20260508071807 | 56 | 221 | 0.0 | 0.9 | 0.00 | 0.00 | 0.00 | 56 | 1015.6 |
| 20260508071150 | 56 | 205 | 0.0 | 1.7 | 0.00 | 0.00 | 0.00 | 56 | 1015.6 |
| 20260508070554 | 56 | 199 | 0.0 | 1.7 | 0.00 | 0.00 | 0.00 | 55 | 1015.6 |
| 20260508065950 | 56 | 199 | 0.0 | 0.0 | 0.00 | 0.00 | 0.00 | 54 | 1016.0 |
| 20260508065350 | 57 | 205 | 0.0 | 0.0 | 0.00 | 0.00 | 0.00 | 54 | 1016.0 |
| 20260508064800 | 57 | 195 | 0.0 | 0.0 | 0.00 | 0.00 | 0.00 | 53 | 1015.6 |
| 20260508064156 | 57 | 213 | 0.0 | 2.6 | 0.00 | 0.00 | 0.00 | 53 | 1016.0 |
| 20260508063548 | 57 | 209 | 0.0 | 1.7 | 0.00 | 0.00 | 0.00 | 53 | 1016.0 |
| 20260508062942 | 57 | 204 | 0.0 | 5.2 | 0.00 | 0.00 | 0.00 | 53 | 1016.0 |
| 20260508062354 | 57 | 209 | 0.0 | 0.0 | 0.00 | 0.00 | 0.00 | 52 | 1015.6 |
| 20260508061747 | 58 | 202 | 0.0 | 0.9 | 0.00 | 0.00 | 0.00 | 51 | 1016.0 |
| 20260508061154 | 58 | 150 | 0.0 | 0.9 | 0.00 | 0.00 | 0.00 | 51 | 1016.0 |
| 20260508060852 | 58 | 205 | 0.0 | 0.9 | 0.00 | 0.00 | 0.00 | 50 | 1016.0 |
| 20260508060046 | 58 | 160 | 0.0 | 0.9 | 0.00 | 0.00 | 0.00 | 49 | 1015.6 |
| 20260508055500 | 58 | 147 | 0.0 | 0.0 | 0.00 | 0.00 | 0.00 | 49 | 1016.3 |
| 20260508054923 | 58 | 154 | 0.0 | 0.0 | 0.00 | 0.00 | 0.00 | 48 | 1016.0 |
| 20260508054405 | 58 | 188 | 0.0 | 0.0 | 0.00 | 0.00 | 0.00 | 46 | 1016.3 |
| 20260508053754 | 59 | 173 | 0.0 | 0.0 | 0.00 | 0.00 | 0.00 | 45 | 1016.3 |
| 20260508053151 | 59 | 200 | 0.0 | 0.0 | 0.00 | 0.00 | 0.00 | 44 | 1016.3 |
| 20260508052558 | 60 | 143 | 0.0 | 5.2 | 0.00 | 0.00 | 0.00 | 43 | 1016.3 |
| 20260508051944 | 60 | 139 | 0.0 | 0.9 | 0.00 | 0.00 | 0.00 | 42 | 1016.3 |
| 20260508051354 | 60 | 196 | 0.0 | 0.9 | 0.00 | 0.00 | 0.00 | 42 | 1016.3 |
| 20260508050747 | 61 | 173 | 0.0 | 0.0 | 0.00 | 0.00 | 0.00 | 41 | 1016.3 |
| 20260508050213 | 60 | 125 | 0.0 | 0.0 | 0.00 | 0.00 | 0.00 | 41 | 1016.3 |
| 20260508045554 | 60 | 145 | 0.0 | 0.0 | 0.00 | 0.00 | 0.00 | 41 | 1016.3 |
| 20260508044955 | 60 | 158 | 0.0 | 0.0 | 0.00 | 0.00 | 0.00 | 40 | 1016.3 |
| 20260508044351 | 60 | 148 | 0.0 | 0.0 | 0.00 | 0.00 | 0.00 | 40 | 1016.3 |
| 20260508043747 | 60 | 150 | 0.0 | 0.0 | 0.00 | 0.00 | 0.00 | 40 | 1016.3 |
| 20260508043208 | 60 | 159 | 0.0 | 0.0 | 0.00 | 0.00 | 0.00 | 39 | 1016.7 |
| 20260508042554 | 60 | 158 | 0.0 | 0.0 | 0.00 | 0.00 | 0.00 | 39 | 1016.7 |
| 20260508042000 | 60 | 159 | 0.0 | 0.0 | 0.00 | 0.00 | 0.00 | 39 | 1016.3 |
| 20260508041345 | 60 | 159 | 0.0 | 0.0 | 0.00 | 0.00 | 0.00 | 39 | 1016.7 |
| 20260508040744 | 61 | 158 | 0.0 | 0.0 | 0.00 | 0.00 | 0.00 | 38 | 1016.7 |
| 20260508040159 | 61 | 161 | 0.0 | 0.0 | 0.00 | 0.00 | 0.00 | 38 | 1016.3 |
| 20260508035558 | 61 | 158 | 0.0 | 0.0 | 0.00 | 0.00 | 0.00 | 38 | 1016.7 |
| 20260508034945 | 62 | 157 | 0.0 | 0.0 | 0.00 | 0.00 | 0.00 | 37 | 1016.7 |
| 20260508034353 | 62 | 156 | 0.0 | 0.0 | 0.00 | 0.00 | 0.00 | 36 | 1016.7 |
| 20260508033745 | 63 | 153 | 0.0 | 0.0 | 0.00 | 0.00 | 0.00 | 36 | 1016.3 |
| 20260508033158 | 63 | 151 | 0.0 | 0.0 | 0.00 | 0.00 | 0.00 | 36 | 1016.3 |
| 20260508032554 | 63 | 153 | 0.0 | 0.0 | 0.00 | 0.00 | 0.00 | 35 | 1016.7 |
| 20260508032012 | 64 | 155 | 0.0 | 0.0 | 0.00 | 0.00 | 0.00 | 35 | 1016.3 |
| 20260508031349 | 64 | 144 | 0.0 | 0.0 | 0.00 | 0.00 | 0.00 | 34 | 1016.3 |
| 20260508030741 | 65 | 155 | 0.0 | 0.0 | 0.00 | 0.00 | 0.00 | 33 | 1016.0 |
| 20260508030425 | 65 | 152 | 0.0 | 0.0 | 0.00 | 0.00 | 0.00 | 33 | 1016.0 |
| 20260508025654 | 65 | 160 | 0.0 | 0.0 | 0.00 | 0.00 | 0.00 | 33 | 1016.0 |
| 20260508025054 | 66 | 142 | 0.0 | 0.9 | 0.00 | 0.00 | 0.00 | 32 | 1016.0 |
| 20260508024554 | 66 | 166 | 0.0 | 0.9 | 0.00 | 0.00 | 0.00 | 32 | 1016.0 |
| 20260508024016 | 66 | 161 | 0.0 | 3.5 | 0.00 | 0.00 | 0.00 | 31 | 1015.6 |
| 20260508023337 | 67 | 144 | 2.6 | 3.5 | 0.00 | 0.00 | 0.00 | 30 | 1016.0 |
| 20260508022750 | 67 | 145 | 0.0 | 0.0 | 0.00 | 0.00 | 0.00 | 29 | 1016.0 |
| 20260508022137 | 67 | 147 | 0.0 | 0.0 | 0.00 | 0.00 | 0.00 | 26 | 1015.6 |
| 20260508021548 | 68 | 162 | 0.0 | 0.0 | 0.00 | 0.00 | 0.00 | 24 | 1015.6 |
| 20260508020958 | 69 | 175 | 0.0 | 0.0 | 0.00 | 0.00 | 0.00 | 24 | 1015.6 |
| 20260508020350 | 69 | 200 | 0.0 | 0.0 | 0.00 | 0.00 | 0.00 | 23 | 1015.3 |
| 20260508015812 | 70 | 210 | 0.0 | 0.0 | 0.00 | 0.00 | 0.00 | 22 | 1015.6 |
| 20260508015151 | 70 | 153 | 0.0 | 0.0 | 0.00 | 0.00 | 0.00 | 22 | 1015.3 |
| 20260508014552 | 71 | 142 | 0.0 | 0.9 | 0.00 | 0.00 | 0.00 | 21 | 1015.3 |
| 20260508014309 | 71 | 153 | 0.0 | 1.7 | 0.00 | 0.00 | 0.00 | 22 | 1015.3 |
| 20260508013500 | 71 | 191 | 0.0 | 1.7 | 0.00 | 0.00 | 0.00 | 22 | 1015.0 |
| 20260508012849 | 72 | 202 | 0.0 | 0.9 | 0.00 | 0.00 | 0.00 | 22 | 1015.0 |
| 20260508012247 | 72 | 204 | 0.0 | 0.9 | 0.00 | 0.00 | 0.00 | 21 | 1015.3 |
| 20260508011651 | 73 | 214 | 0.0 | 0.9 | 0.00 | 0.00 | 0.00 | 21 | 1015.3 |
| 20260508011052 | 73 | 226 | 0.0 | 1.7 | 0.00 | 0.00 | 0.00 | 21 | 1015.3 |
| 20260508010449 | 73 | 207 | 0.0 | 0.0 | 0.00 | 0.00 | 0.00 | 21 | 1015.0 |
| 20260508005852 | 73 | 200 | 0.0 | 0.0 | 0.00 | 0.00 | 0.00 | 20 | 1015.0 |
| 20260508005732 | 74 | 202 | 0.0 | 6.1 | 0.00 | 0.00 | 0.00 | 20 | 1015.3 |
| 20260508004906 | 74 | 215 | 1.7 | 6.1 | 0.00 | 0.00 | 0.00 | 20 | 1015.3 |
| 20260508004055 | 74 | 159 | 0.0 | 7.0 | 0.00 | 0.00 | 0.00 | 20 | 1015.3 |
| 20260508003444 | 74 | 212 | 5.2 | 7.0 | 0.00 | 0.00 | 0.00 | 21 | 1015.0 |
| 20260508003115 | 74 | 201 | 0.0 | 3.5 | 0.00 | 0.00 | 0.00 | 21 | 1015.3 |
| 20260508002251 | 74 | 217 | 0.0 | 8.7 | 0.00 | 0.00 | 0.00 | 20 | 1015.3 |
| 20260508001654 | 74 | 224 | 4.3 | 8.7 | 0.00 | 0.00 | 0.00 | 20 | 1015.3 |
| 20260508001055 | 74 | 224 | 6.1 | 7.8 | 0.00 | 0.00 | 0.00 | 19 | 1015.3 |
| 20260508000551 | 74 | 218 | 0.0 | 0.9 | 0.00 | 0.00 | 0.00 | 21 | 1015.3 |
| 20260507235954 | 74 | 177 | 0.0 | 7.8 | 0.00 | 0.00 | 0.00 | 22 | 1015.3 |
| 20260507235354 | 75 | 233 | 1.7 | 2.6 | 0.00 | 0.00 | 0.00 | 21 | 1015.3 |
| 20260507234751 | 74 | 196 | 0.0 | 3.5 | 0.00 | 0.00 | 0.00 | 21 | 1015.3 |
| 20260507234150 | 74 | 140 | 0.0 | 3.5 | 0.00 | 0.00 | 0.00 | 22 | 1015.3 |
| 20260507233613 | 74 | 215 | 0.0 | 1.7 | 0.00 | 0.00 | 0.00 | 22 | 1015.3 |
| 20260507232956 | 74 | 210 | 0.9 | 7.8 | 0.00 | 0.00 | 0.00 | 22 | 1015.3 |
| 20260507232352 | 75 | 207 | 0.0 | 1.7 | 0.00 | 0.00 | 0.00 | 22 | 1015.6 |
| 20260507231752 | 75 | 181 | 0.0 | 3.5 | 0.00 | 0.00 | 0.00 | 23 | 1015.6 |
| 20260507231212 | 74 | 186 | 0.0 | 3.5 | 0.00 | 0.00 | 0.00 | 22 | 1015.6 |
| 20260507230549 | 74 | 199 | 0.0 | 1.7 | 0.00 | 0.00 | 0.00 | 23 | 1016.0 |
| 20260507230011 | 75 | 227 | 0.0 | 0.9 | 0.00 | 0.00 | 0.00 | 23 | 1015.6 |
| 20260507225356 | 75 | 215 | 0.0 | 7.0 | 0.00 | 0.00 | 0.00 | 23 | 1015.6 |